Flag for Switzerland Weather past 2 weeks in Schaffhausen, Schaffhausen, Switzerland

Now
46 °F

Cool.


Feels Like: 44 °F
Forecast: 28 / 40 °F
Wind: 5 mph from West

Location: Zurich-Kloten

Current Time: Mar 3, 2015 at 9:27:05 PM

Latest Report: Mar 3, 2015 at 8:00 PM


Visibility: N/A

Pressure: 30.20 "Hg

Humidity: 49%

Dew point: 28 °F

Location of SchaffhausenLocation

Historic Weather in Schaffhausen — Graph

°F

Schaffhausen temperature yesterday

Maximum temperature yesterday: 49 °F (at 5:00 AM)
Minimum temperature yesterday: 40 °F (at 11:00 PM)
Average temperature yesterday: 45 °F

Past Weeks' High & Low Weather Summary

 TemperatureHumidityPressure
High52 °F (Feb 20, 3:00 PM)98% (Feb 22, 6:00 AM)30.76 "Hg (Feb 22, 6:00 AM)
Low24 °F (Feb 26, 6:00 AM)31% (Feb 20, 3:00 PM)29.59 "Hg (Feb 21, 11:00 AM)
Average36 °F81%30.10 "Hg
* Reported Feb 16 10:00 PM — Mar 3 8:00 PM, Schaffhausen, Weather by CustomWeather, © 2015

Note: Actual official high and low records may vary slightly from our data, if they occured in-between our weather recording intervals... More about our weather records

Advertising

Schaffhausen weather history for previous 24 hours

 ConditionsComfort  
Time TempWeatherWind HumidityBarometerVisibility
8:00 PM
Tue, Mar 3
46 °FCool.5 mph49%30.20 "HgN/A
7:00 PM46 °FOvercast.6 mph53%30.18 "Hg12 mi
6:00 PM48 °FCool.9 mph48%30.17 "HgN/A
5:00 PM50 °FCool.6 mph46%30.16 "HgN/A
4:00 PM51 °FScattered clouds.10 mph41%30.16 "Hg31 mi
3:00 PM50 °FCool.10 mph47%30.18 "HgN/A
2:00 PM49 °FCool.7 mph43%30.20 "HgN/A
1:00 PM48 °FScattered clouds.5 mph40%30.22 "Hg22 mi
12:00 PM46 °FCool.2 mph47%30.25 "HgN/A
11:00 AM45 °FCool.2 mph56%30.27 "HgN/A
10:00 AM42 °FPartly sunny.3 mph69%30.29 "Hg22 mi
9:00 AM37 °FChilly.5 mph78%30.30 "HgN/A
8:00 AM31 °FChilly.3 mph88%30.32 "HgN/A
7:00 AM32 °FPassing clouds.3 mph82%30.30 "Hg19 mi
6:00 AM31 °FChilly.3 mph90%30.31 "HgN/A
5:00 AM32 °FChilly.3 mph85%30.30 "HgN/A
4:00 AM31 °FOvercast.3 mph88%30.29 "Hg19 mi
3:00 AM34 °FChilly.2 mph78%30.29 "HgN/A
2:00 AM34 °FChilly.2 mph75%30.29 "HgN/A
1:00 AM36 °FPassing clouds.5 mph70%30.27 "Hg19 mi
12:00 AM38 °FChilly.7 mph61%30.25 "HgN/A
11:00 PM
Mon, Mar 2
40 °FChilly.12 mph61%30.22 "HgN/A
9:00 PM41 °FQuite cool.14 mph71%30.14 "HgN/A
Weather by CustomWeather, © 2015

See weather overviewHow to use our weather pages